This demonstration page uses our WeatherBlox Daily Observations layout. Learn more.

Left ArrowRight Arrow

41.86663, -103.66717

Hourly Observations for October 23, 2015

Temp ( °F °C ) Dew Point ( °F °C ) Humidity (%) Winds ( mph kmh ) Pressure ( in mb ) Visibility ( mi km ) Precip ( " mm )
12:09 am 00:09 Cloudy 47 8.3 47 8.3 100 100 WNW 6 9 29.83 1010 9 14 N/A
12:20 am 00:20 Cloudy with Light Rain 46 8 46 8 100 100 WNW 7 11 29.83 1010 8 13 N/A
12:53 am 00:53 Cloudy with Light Rain 47 8.3 47 8.3 100 100 W 6 9 29.80 1009 7 11 N/A
1:22 am 01:22 Cloudy with Light Rain 46 8 46 8 100 100 W 5 7 29.83 1010 6 10 N/A
1:44 am 01:44 Cloudy with Light Rain 46 8 46 8 100 100 W 5 7 29.83 1010 6 10 N/A
1:53 am 01:53 Cloudy with Light Rain 47 8.3 47 8.3 100 100 WNW 7 11 29.80 1009 7 11 0.04 1.02
2:22 am 02:22 Cloudy with Light Rain 46 8 46 8 100 100 NW 6 9 29.83 1010 3 5 N/A
2:51 am 02:51 Cloudy with Mist and Fog 46 8 46 8 100 100 NW 8 13 29.83 1010 4 6 0.01 0.25
2:53 am 02:53 Cloudy with Mist and Fog 47 8.3 47 8.3 100 100 NW 7 11 29.81 1010 4 6 0.01 0.25
2:58 am 02:58 Cloudy with Mist and Fog 46 8 46 8 100 100 NW 9 15 29.83 1010 4 6 N/A
3:18 am 03:18 Cloudy with Mist and Fog 46 8 46 8 100 100 WNW 8 13 29.83 1010 4 6 N/A
3:25 am 03:25 Cloudy with Mist and Fog 47 8.3 47 8.3 100 100 WNW 9 15 29.83 1010 6 10 N/A
3:38 am 03:38 Cloudy with Mist and Fog 46 8 46 8 100 100 WNW 8 13 29.83 1010 6 10 N/A
3:46 am 03:46 Cloudy 47 8.3 47 8.3 100 100 WNW 9 15 29.83 1010 9 14 N/A
3:53 am 03:53 Cloudy 47 8.3 47 8.3 100 100 NW 9 15 29.82 1010 10 16 N/A
4:11 am 04:11 Cloudy with Mist and Fog 47 8.3 47 8.3 100 100 WNW 9 15 29.83 1010 5 8 N/A
4:18 am 04:18 Cloudy with Light Rain 46 8 46 8 100 100 WNW 8 13 29.83 1010 4 6 N/A
4:37 am 04:37 Cloudy with Light Rain 47 8.3 47 8.3 100 100 WNW 8 13 29.83 1010 5 8 0.01 0.25
4:53 am 04:53 Cloudy with Light Rain 47 8.3 47 8.3 100 100 WNW 9 15 29.82 1010 5 8 0.02 0.51
5:26 am 05:26 Cloudy with Light Rain 47 8.3 47 8.3 100 100 WNW 12 19 29.85 1011 6 10 0.02 0.51
5:53 am 05:53 Cloudy 48 8.9 48 8.9 100 100 WNW 13 20 29.83 1010 7 11 0.03 0.76
6:22 am 06:22 Cloudy 48 9 48 9 100 100 NW 23 37 29.85 1011 10 16 N/A
6:53 am 06:53 Cloudy 48 8.9 45 7.2 89 89 NW 21 33 29.85 1011 10 16 N/A
7:14 am 07:14 Cloudy with Light Rain 48 9 45 7 87 87 WNW 21 33 29.85 1011 10 16 N/A
7:23 am 07:23 Cloudy with Light Rain 47 8.3 46 7.8 97 97 WNW 22 35 29.88 1012 10 16 N/A
7:53 am 07:53 Cloudy 48 8.9 45 7.2 89 89 WNW 22 35 29.88 1012 10 16 N/A
8:36 am 08:36 Cloudy 48 8.9 44 6.7 86 86 WNW 18 30 29.91 1013 10 16 N/A
8:53 am 08:53 Cloudy 49 9.4 44 6.7 83 83 WNW 20 31 29.92 1013 10 16 N/A
9:09 am 09:09 Mostly Cloudy 51 10.6 45 7.2 80 80 NW 24 39 29.88 1012 10 16 N/A
9:53 am 09:53 Mostly Cloudy 53 11.7 44 6.7 72 72 NW 25 41 29.95 1014 10 16 N/A
10:53 am 10:53 Cloudy 55 12.8 41 5 59 59 NW 29 46 29.96 1014 10 16 N/A
11:53 am 11:53 Cloudy 55 12.8 41 5 59 59 NW 20 31 29.97 1015 10 16 N/A
12:53 pm 12:53 Cloudy 57 13.9 39 3.9 51 51 NW 21 33 29.97 1015 10 16 N/A
1:53 pm 13:53 Mostly Cloudy 59 15 35 1.7 41 41 NNW 29 46 29.96 1014 10 16 N/A
2:53 pm 14:53 Sunny 60 15.6 32 undefined 35 35 NNW 29 46 29.96 1015 10 16 N/A
3:53 pm 15:53 Sunny 59 15 30 -1.1 33 33 NNW 26 43 30.00 1016 10 16 N/A
4:53 pm 16:53 Sunny 57 13.9 28 -2.2 33 33 NNW 23 37 30.04 1017 10 16 N/A
5:53 pm 17:53 Sunny 52 11.1 30 -1.1 43 43 NNW 14 22 30.09 1019 10 16 N/A
6:53 pm 18:53 Clear 45 7.2 32 undefined 61 61 NNW 8 13 30.13 1020 10 16 N/A
7:53 pm 19:53 Clear 41 5 32 undefined 70 70 undefined N/A 30.16 1021 10 16 N/A
8:53 pm 20:53 Clear 40 4.4 31 -0.6 70 70 WNW 6 9 30.15 1021 10 16 N/A
9:53 pm 21:53 Clear 39 3.9 31 -0.6 73 73 NW 6 9 30.16 1021 10 16 N/A
10:53 pm 22:53 Clear 35 1.7 30 -1.1 82 82 undefined N/A 30.17 1022 10 16 N/A
11:53 pm 23:53 Clear 33 0.6 29 -1.7 85 85 N 7 11 30.18 1022 10 16 N/A

Powered by AerisWeather